Theta_e
339 339 338 338 338 338 338 339 339 339 340 340 339 339 339 340 341 340 339 339 342 345 347 349 349 350 350 350 352 352 351 351 352 352 352 352 353 353 354 354 352 351 350 349 347 348 349 349 349 347 346 345 345 344 344 343 343 343 343 343 343 343 343 343 343 343 342 341 342 343 342 341 341 342 342 343 343 343 343 344 344 344 343 344 344
339 338 338 338 338 339 338 339 338 339 340 340 340 340 340 340 341 340 341 344 348 350 350 350 350 349 350 352 353 353 353 354 354 354 354 354 355 354 354 353 351 349 348 347 345 343 343 342 342 342 341 340 339 339 340 340 340 340 340 339 339 338 338 339 339 340 340 337 336 337 338 339 340 340 341 340 341 341 341 342 342 343 343 342 342
339 339 339 339 339 339 338 339 338 339 340 340 341 342 341 341 340 341 344 349 350 350 350 350 350 351 352 353 354 354 354 355 355 355 355 354 354 353 352 351 349 347 344 341 338 336 333 332 332 332 332 332 332 333 335 336 336 336 335 334 334 333 334 335 335 336 336 335 332 331 333 337 339 339 339 338 338 338 338 338 339 340 341 341 341
339 340 339 339 340 339 339 340 339 339 339 339 341 342 341 340 340 344 349 351 351 351 351 352 352 353 354 355 355 355 355 355 354 354 352 351 348 345 343 340 337 334 331 329 327 326 325 325 325 325 326 326 327 328 330 331 332 332 331 330 330 331 331 332 333 332 333 333 331 328 330 334 335 335 336 335 335 335 334 334 334 335 337 339 341
340 340 340 340 340 339 340 340 340 339 340 340 340 343 342 340 343 349 351 351 352 352 353 353 354 355 355 355 355 355 353 351 348 344 340 337 333 330 328 326 325 324 324 324 324 324 324 325 324 324 324 324 324 325 325 326 328 328 329 329 329 330 330 330 330 330 330 330 331 329 330 331 332 333 333 334 335 335 335 334 333 332 334 337 340
341 341 341 341 340 341 340 340 340 340 339 339 341 343 343 343 347 352 353 353 354 354 354 355 355 356 355 354 352 347 342 337 332 329 326 325 324 323 323 323 323 324 325 326 327 327 327 326 326 326 324 324 324 324 325 326 327 328 328 329 329 329 329 328 329 329 329 331 331 332 332 333 333 333 334 333 334 335 336 336 335 334 335 337 339
342 341 342 342 342 341 341 341 340 340 339 340 342 344 346 347 351 354 354 354 354 355 356 356 356 355 352 346 339 332 328 325 324 323 323 323 323 324 325 326 327 327 327 328 327 327 327 326 326 326 325 324 323 324 325 327 327 327 328 328 328 328 328 329 330 330 331 332 333 334 334 335 335 334 334 333 333 334 335 335 335 337 338 337 339
342 342 343 342 342 342 341 341 340 341 341 341 343 346 348 351 354 355 355 356 356 357 357 356 354 349 340 331 325 323 323 324 323 324 324 324 325 327 328 328 328 328 327 327 326 326 326 325 325 325 324 324 324 325 326 327 327 327 327 327 327 326 327 328 330 331 332 333 334 334 335 335 335 335 335 334 334 334 334 333 334 336 338 338 339
342 342 343 343 343 342 341 341 342 341 342 343 346 349 351 354 356 356 356 357 357 357 356 353 346 335 326 323 323 324 324 324 325 326 326 328 328 328 328 328 327 327 327 326 326 325 325 325 325 324 324 324 325 325 326 326 326 326 327 327 327 327 328 328 330 331 332 333 334 334 335 335 335 335 335 335 334 334 334 334 333 336 339 339 339
343 342 342 343 342 341 341 343 342 342 344 346 348 351 354 355 357 356 357 357 357 355 351 342 331 324 322 323 324 324 325 326 327 328 328 329 328 327 327 327 326 326 326 326 325 325 325 325 325 324 324 324 324 325 325 325 325 326 327 327 328 329 330 330 331 332 333 333 334 334 334 334 335 335 335 335 334 334 335 335 335 336 339 340 341
343 342 342 342 341 342 343 343 344 344 347 349 351 354 355 356 356 357 357 357 354 349 339 328 323 323 324 325 325 326 327 328 328 328 328 327 327 326 326 326 326 325 325 325 325 325 325 325 325 325 324 324 325 325 325 324 325 326 326 328 329 330 331 332 332 332 333 333 333 333 334 334 334 334 334 334 334 334 335 336 336 336 337 339 340
343 343 342 341 342 344 344 345 346 347 349 351 354 355 356 357 357 358 357 354 347 336 326 322 323 325 325 327 328 328 329 328 328 327 327 326 326 326 326 325 325 324 324 325 325 325 325 325 325 325 324 325 325 325 325 324 325 326 326 327 328 329 330 331 332 332 333 333 333 333 334 334 334 335 335 335 334 334 334 335 335 336 336 337 337
343 342 342 341 342 343 345 347 348 349 351 354 354 356 357 357 358 358 354 346 334 324 322 324 325 327 327 329 329 328 328 327 327 326 326 326 326 326 325 324 324 324 324 324 324 324 324 325 325 325 325 326 326 325 325 325 325 326 326 327 327 328 329 330 331 332 333 333 333 333 334 334 335 335 335 335 334 334 334 334 334 335 335 335 335
343 343 342 342 343 344 346 348 350 351 353 354 354 357 357 358 358 354 345 332 324 322 324 326 327 328 329 329 328 327 327 326 326 326 326 326 326 325 324 324 324 324 324 324 324 324 324 324 325 325 325 326 326 326 326 326 325 326 325 326 327 327 327 328 330 332 333 333 334 334 334 335 335 335 335 335 335 335 334 334 334 335 335 335 335
344 344 343 343 345 346 348 350 351 353 354 354 356 357 358 358 354 345 331 323 322 325 325 327 329 329 328 327 327 326 326 326 326 326 326 326 325 325 324 324 324 324 324 324 325 325 325 324 325 325 325 325 325 326 326 326 325 325 325 326 327 328 329 330 331 333 334 334 334 334 334 335 334 335 335 335 335 335 334 334 334 334 335 334 334
344 344 343 344 346 347 349 351 353 353 354 356 357 358 358 354 344 330 323 322 324 326 328 329 329 328 327 327 326 326 326 326 326 325 325 325 325 324 324 325 325 324 324 325 325 326 326 325 324 325 325 325 325 325 326 325 325 324 324 326 329 331 332 333 334 334 334 334 334 333 333 334 334 335 335 335 334 334 335 335 334 335 335 334 334
344 344 344 346 347 350 352 352 353 355 357 357 358 358 354 343 330 322 323 324 326 327 328 328 328 327 327 327 326 326 326 325 325 325 325 325 324 325 325 325 325 325 325 325 326 326 327 326 325 324 324 325 325 325 325 325 324 324 326 330 331 332 332 332 332 332 332 332 332 332 333 333 334 334 334 335 334 334 334 334 334 335 335 334 334
344 345 345 347 349 352 353 354 356 357 358 358 357 352 340 328 322 323 324 325 327 328 328 328 327 327 327 326 326 326 325 325 324 324 324 324 324 325 325 325 325 325 325 325 325 325 326 326 325 324 323 324 324 325 325 324 324 326 329 331 331 330 330 330 330 330 330 330 330 331 333 333 333 334 335 334 334 334 335 334 333 334 333 333 333
345 345 347 349 352 353 355 357 358 358 358 356 348 336 326 322 323 324 325 327 328 328 328 328 327 327 327 326 326 325 324 324 324 323 324 324 324 324 324 325 325 325 325 325 325 325 326 326 325 324 323 323 324 324 324 324 326 329 329 329 328 328 329 329 328 329 329 328 330 331 332 333 333 334 334 334 333 333 334 333 333 333 333 333 333
346 348 350 352 354 356 357 359 358 356 353 345 332 323 322 323 324 325 326 327 327 327 327 327 327 327 326 325 325 324 323 323 323 323 323 323 324 324 324 324 324 324 324 325 326 327 327 327 326 324 323 323 323 324 324 325 327 327 326 325 324 323 324 324 325 325 326 327 328 330 331 332 333 333 333 332 332 332 332 332 332 333 332 332 332
349 352 353 355 357 358 357 357 355 350 340 328 321 322 323 324 324 325 326 326 327 327 327 326 326 326 325 325 324 323 322 322 322 323 322 323 323 323 323 323 323 323 324 324 325 327 327 328 327 326 326 325 325 324 324 323 322 321 319 318 319 320 322 323 324 324 325 326 327 329 331 331 331 332 332 332 332 331 331 331 331 331 331 331 331
353 354 356 357 357 357 355 352 346 336 325 321 322 322 323 324 325 324 324 326 327 326 326 326 326 325 325 324 323 322 322 322 321 321 322 322 323 323 323 323 322 323 323 323 323 324 325 326 326 326 325 325 324 323 322 320 317 316 315 317 320 324 326 326 326 326 326 326 326 329 330 330 330 331 331 332 331 331 330 330 330 330 330 330 330
355 356 357 358 356 354 351 344 332 323 321 323 324 322 323 324 324 322 324 327 326 326 326 325 325 325 324 323 323 322 322 321 321 321 322 322 322 322 323 323 322 322 322 322 322 322 323 323 323 323 323 323 323 322 322 320 317 314 314 316 321 326 327 327 327 327 327 327 327 327 328 329 329 330 330 329 329 329 329 329 329 329 329 329 329
356 357 358 356 354 351 344 331 321 321 324 324 323 322 323 324 322 321 324 326 326 325 325 325 324 324 323 322 322 322 321 321 321 321 321 322 322 322 322 323 322 322 321 322 322 322 322 322 322 323 322 322 321 321 321 320 317 314 312 314 317 322 325 327 327 327 327 328 327 328 328 328 328 328 327 327 326 326 326 326 327 327 327 327 328
357 358 356 354 352 347 335 322 321 323 323 322 323 323 323 323 321 320 323 325 325 325 324 324 324 323 322 322 322 321 321 321 321 320 320 321 321 322 322 322 322 322 321 321 321 321 321 321 321 321 321 320 319 319 319 319 317 313 311 312 313 315 319 323 325 326 326 327 327 327 327 326 326 325 323 322 322 322 322 323 323 324 325 325 325
358 356 355 353 349 338 325 320 321 323 323 323 323 323 323 322 320 319 322 324 324 324 323 323 322 322 321 321 321 321 321 321 321 320 320 320 320 321 321 321 321 321 321 321 321 321 320 320 320 320 319 319 318 318 318 318 316 313 311 311 313 313 314 317 319 321 322 323 323 323 323 322 321 320 319 319 319 318 318 319 319 319 320 320 321
356 354 353 349 339 326 320 321 322 324 326 326 324 322 321 320 318 319 320 322 322 322 321 321 320 320 320 321 321 321 321 320 320 320 320 320 319 319 319 319 320 320 321 321 321 321 321 320 319 320 319 319 318 318 318 318 316 315 313 313 314 315 314 314 315 316 317 317 317 318 317 317 316 316 315 315 315 315 314 314 313 314 314 314 315
354 353 347 337 326 319 319 321 323 326 327 325 323 321 319 318 317 318 318 320 320 319 318 317 318 318 318 319 320 319 319 318 319 319 320 320 319 318 317 315 315 316 318 321 321 321 320 320 318 318 319 319 319 318 318 318 318 317 317 316 316 316 316 316 315 315 315 315 316 316 315 315 315 315 314 314 314 314 314 313 313 313 312 311 312
350 345 334 324 320 321 322 323 325 327 325 323 321 320 318 317 316 316 317 318 318 315 313 313 313 313 314 315 315 315 315 315 315 317 320 321 319 318 317 315 313 313 315 318 319 319 319 319 318 318 318 319 319 319 318 318 318 318 318 318 318 318 318 318 317 316 316 316 316 316 316 316 316 316 316 316 316 315 315 315 315 314 314 313 313
341 332 323 321 323 323 323 326 326 324 323 322 322 320 317 316 315 315 316 315 314 312 311 310 309 309 310 310 310 309 310 310 310 314 319 320 320 319 317 316 314 313 313 314 315 315 317 317 318 318 318 318 318 318 318 318 318 318 318 318 318 318 318 318 318 318 318 317 317 317 317 317 317 317 317 317 317 317 316 316 316 315 315 315 314
333 323 321 325 327 325 326 327 325 323 323 322 321 319 317 315 315 314 314 313 311 311 310 309 309 308 307 307 307 307 307 307 308 311 316 319 320 319 318 316 315 314 314 313 312 313 316 317 317 318 318 318 318 318 318 318 318 317 318 318 318 318 317 317 318 318 318 318 317 317 317 317 317 317 317 317 317 317 317 317 317 316 316 316 315
327 320 322 327 327 327 328 327 324 323 323 322 321 319 317 315 314 313 312 311 311 311 310 309 308 308 307 307 306 306 307 307 307 310 313 317 319 319 318 316 315 314 315 314 313 313 315 316 316 316 316 316 317 317 318 317 317 317 317 317 317 317 317 317 317 316 316 316 316 316 316 316 316 316 316 317 317 317 317 317 316 317 317 316 316
322 319 323 325 325 327 327 326 323 322 322 321 321 320 317 315 314 313 312 311 311 310 310 309 308 307 306 306 306 306 306 307 307 309 311 314 316 317 316 315 314 314 314 314 314 314 315 315 316 316 316 316 316 317 317 317 317 317 317 317 317 317 317 317 317 316 315 315 315 315 315 315 315 315 315 315 315 316 316 316 316 316 316 316 316
320 322 323 322 324 326 327 326 323 321 320 321 321 320 318 316 314 312 312 312 311 310 310 308 307 307 307 306 306 306 306 306 307 307 309 310 312 313 313 313 314 313 313 313 313 314 315 316 316 316 317 317 317 317 317 317 317 317 317 317 317 317 316 316 316 316 315 315 315 315 314 315 314 314 314 313 313 313 314 314 314 314 315 315 315
322 322 321 322 325 327 327 326 324 322 320 320 320 320 319 317 314 312 312 312 310 310 309 307 306 306 306 306 306 305 305 306 306 307 308 308 309 309 309 310 311 312 312 312 312 313 313 315 316 317 317 317 317 317 317 317 317 317 317 316 317 316 316 316 316 315 315 315 314 314 314 314 314 314 313 312 312 312 312 312 312 312 313 313 314
323 323 324 326 327 326 326 326 324 321 319 319 320 320 319 317 314 312 311 311 310 309 308 307 306 307 306 306 306 305 305 305 305 306 307 307 307 307 307 307 309 309 310 310 310 310 310 312 314 315 316 317 317 317 317 317 317 317 316 316 316 316 316 316 316 315 315 314 314 314 313 313 313 313 312 312 311 311 311 311 310 310 309 309 310
323 324 325 326 325 324 324 325 322 320 319 319 318 318 317 315 313 312 311 310 309 308 307 306 306 306 306 306 306 305 305 305 305 305 305 306 306 306 306 306 306 307 307 307 307 307 308 309 311 312 314 314 315 315 316 317 318 317 317 316 316 316 315 315 315 315 315 315 314 314 314 313 313 313 313 312 312 312 311 311 311 309 307 306 307
324 324 325 324 323 321 322 322 321 319 318 317 315 314 313 312 311 311 310 309 308 307 306 307 306 306 307 307 306 306 305 305 305 305 305 305 306 305 306 306 306 306 306 306 306 306 306 306 307 308 309 309 309 310 313 316 318 318 318 317 316 316 315 314 315 315 315 314 314 314 314 314 313 313 313 313 313 313 312 312 312 311 308 306 306
325 325 325 325 323 319 318 319 319 317 316 314 312 312 311 310 310 309 308 307 307 306 306 307 307 306 307 308 307 306 305 305 305 305 305 305 306 306 306 307 306 306 307 306 306 307 306 306 306 306 306 306 305 306 309 312 315 317 318 318 317 316 315 314 314 314 314 314 314 314 314 314 313 313 313 313 313 313 313 312 312 311 310 307 306
325 325 326 327 325 319 316 316 316 314 313 312 311 311 310 309 308 308 307 306 307 307 306 307 307 306 307 309 308 306 305 305 305 305 305 305 306 306 307 307 308 308 308 308 308 308 308 308 307 307 306 306 305 305 306 307 310 313 316 318 317 316 316 315 315 314 314 314 313 313 313 313 313 312 312 311 311 312 312 311 311 311 310 307 305
324 326 327 328 326 319 314 314 314 312 311 311 310 309 309 309 308 308 308 307 307 307 307 306 307 306 307 309 310 308 307 306 306 306 305 305 306 307 307 308 309 310 311 311 311 310 309 309 308 308 307 306 306 305 305 305 306 308 312 316 317 317 316 316 315 314 313 313 312 311 311 311 311 310 309 307 307 309 311 311 311 311 309 307 305
325 326 327 328 327 321 313 312 313 312 311 312 312 311 312 313 312 311 310 309 308 308 307 307 307 306 307 309 310 309 308 308 308 307 306 306 306 307 308 309 311 313 314 314 313 312 311 310 309 309 308 307 306 306 306 305 305 306 309 314 317 317 317 316 315 313 311 310 309 308 308 307 307 308 307 305 304 307 309 310 310 310 308 306 305
326 327 327 328 329 324 315 311 312 314 314 315 316 317 318 318 315 313 312 311 310 309 307 307 307 306 306 308 310 310 309 308 309 309 308 306 307 308 309 310 312 314 315 315 315 314 314 312 311 310 309 308 307 306 306 306 305 305 306 309 312 313 314 314 312 310 309 308 307 306 306 305 305 305 305 304 304 306 308 308 308 308 307 306 305
326 328 327 326 327 326 318 313 315 319 319 319 320 321 321 320 318 316 315 313 311 310 308 307 306 306 306 307 308 309 309 309 310 311 310 308 307 308 309 310 312 314 315 315 315 314 314 314 313 311 310 309 308 307 306 306 306 305 305 306 306 307 308 309 308 307 306 306 305 305 304 305 305 304 304 304 304 305 306 306 307 307 306 305 305
327 329 327 323 322 323 318 314 318 323 323 322 323 322 321 320 320 319 318 316 313 311 309 307 306 307 306 306 307 308 309 311 313 313 311 309 308 308 308 309 312 314 315 315 315 315 314 314 314 313 312 310 308 307 307 306 306 305 306 305 305 306 306 306 306 306 305 305 305 304 304 304 304 304 304 304 305 305 305 305 305 305 305 305 305
328 328 325 320 319 321 318 316 321 325 324 322 322 322 321 321 321 320 319 318 314 311 309 308 307 307 306 306 307 309 310 312 314 314 312 311 308 307 307 309 311 313 315 315 315 315 315 314 314 314 313 311 309 308 307 306 306 305 305 305 305 305 305 305 305 305 305 305 305 304 304 305 304 304 304 304 305 305 305 305 305 305 306 307 308
328 328 324 320 319 320 318 318 323 326 324 323 322 322 322 323 322 321 320 318 315 312 310 308 307 307 308 307 308 310 312 314 315 315 315 313 311 308 307 307 309 312 315 315 315 315 315 314 314 313 313 312 310 308 307 306 306 306 305 306 305 306 305 305 306 305 306 305 305 305 304 304 304 304 305 305 305 306 307 308 309 310 311 312 313
328 328 325 320 317 318 320 323 326 326 324 323 323 323 323 324 323 322 321 318 315 314 312 309 309 309 309 309 310 313 314 316 317 317 317 317 315 313 312 310 310 311 313 315 315 316 316 315 314 313 313 312 310 308 307 306 306 306 306 307 307 307 307 307 307 308 308 307 306 306 306 306 306 306 307 308 309 311 312 313 314 315 315 315 315
328 329 327 323 319 319 322 325 325 325 325 325 324 324 324 324 323 322 321 318 317 315 313 311 312 313 312 312 313 315 316 317 318 318 318 319 318 318 317 316 315 314 313 313 314 315 316 315 314 313 312 311 310 308 307 307 307 308 309 310 310 311 311 311 312 312 311 310 309 309 310 310 311 312 313 314 315 316 316 316 316 316 316 316 315
328 328 328 326 324 322 322 322 322 324 326 325 325 325 325 324 323 322 321 320 319 317 315 313 313 314 315 315 316 316 317 317 318 318 319 319 319 319 319 319 319 318 317 315 314 314 315 315 315 313 312 311 309 308 308 308 309 311 313 314 314 315 315 315 315 315 314 313 313 313 313 314 315 316 316 316 317 317 316 316 316 315 315 315 314
328 327 327 327 326 326 325 324 324 324 325 325 325 325 324 323 322 322 321 321 321 320 318 316 314 314 315 317 318 317 317 317 317 317 318 318 319 320 320 319 320 320 320 318 315 313 314 315 316 314 313 311 310 309 309 311 313 314 315 316 316 316 316 316 316 316 316 316 316 316 316 316 317 317 317 317 317 316 316 316 315 315 315 314 314
Wind_Speed
22 23 23 23 21 20 19 19 20 21 20 20 19 20 21 21 21 21 21 21 22 22 23 23 23 24 25 26 26 26 25 24 24 24 24 25 26 26 26 25 23 22 23 24 24 25 27 30 31 32 33 33 32 30 25 21 19 17 16 17 16 14 14 16 20 24 25 25 25 25 25 25 24 21 20 18 17 17 19 21 22 22 22 24 26
22 22 22 22 22 21 21 22 22 22 21 20 20 20 21 22 22 21 21 21 22 22 21 21 22 24 26 26 25 24 23 23 24 25 26 27 27 27 27 27 26 25 26 27 27 28 29 30 32 34 34 35 33 31 27 24 22 20 20 21 20 19 18 18 20 22 25 26 27 27 26 25 23 20 18 17 15 14 15 15 17 19 20 21 23
22 22 22 23 23 23 24 24 23 23 22 21 20 20 20 20 21 20 20 20 20 19 19 20 22 24 25 24 23 23 23 24 26 27 28 28 27 27 27 28 29 29 29 29 30 30 30 30 30 30 30 31 31 29 28 27 25 24 24 24 24 22 21 20 20 21 23 24 25 26 26 24 22 19 18 18 17 16 16 15 15 15 16 19 20
23 24 24 24 25 26 26 26 25 25 24 22 22 20 19 19 19 19 19 18 17 18 19 20 22 23 24 23 23 23 25 27 28 28 28 27 27 28 28 29 29 30 29 29 28 28 27 27 26 25 25 25 25 25 25 25 24 23 23 22 21 21 20 19 19 19 20 20 20 23 25 25 23 21 20 19 16 16 17 17 16 15 14 16 18
25 26 26 26 27 27 27 27 27 26 26 25 24 21 20 19 19 18 17 16 17 18 19 20 22 23 23 23 23 25 26 27 27 26 26 26 27 27 27 27 26 26 26 25 24 23 23 23 22 21 20 19 19 19 19 19 19 19 19 19 19 19 19 19 19 19 19 19 19 20 22 22 21 19 17 15 13 11 12 13 15 16 15 15 17
26 27 27 28 29 29 29 29 27 27 27 26 25 22 20 19 18 17 16 16 17 17 18 20 22 23 22 23 24 25 25 25 25 25 25 24 24 24 24 24 23 23 22 22 21 21 21 20 20 19 17 16 14 13 12 13 13 14 15 15 16 16 16 15 15 15 16 16 16 16 16 16 15 15 13 12 11 10 8 8 11 14 15 15 16
27 28 28 28 29 30 31 29 28 27 26 26 24 22 19 18 17 16 16 16 16 17 19 21 22 21 22 22 23 23 23 23 23 23 23 23 23 23 22 21 20 20 20 20 20 20 19 19 18 17 16 13 11 9 10 11 12 13 13 14 14 14 12 11 11 11 11 11 12 12 13 12 12 12 12 11 11 10 10 8 7 9 13 15 16
29 29 29 29 30 31 31 29 27 26 25 24 22 20 18 17 16 16 16 15 16 17 19 20 20 21 22 22 22 22 22 22 22 23 23 22 21 21 20 19 19 19 19 19 20 20 19 18 17 16 15 13 10 9 9 11 12 13 13 12 12 11 10 9 9 8 8 9 11 11 11 11 11 10 10 10 9 9 11 10 7 6 9 12 14
30 30 30 30 30 31 29 27 26 24 23 22 20 18 17 16 16 15 15 15 16 18 18 19 20 20 20 20 20 20 21 21 22 21 21 19 19 19 19 19 20 20 20 20 20 20 19 18 17 16 14 12 10 8 8 10 11 12 12 11 9 7 6 7 7 7 8 9 9 9 9 9 8 8 8 8 7 7 9 9 8 7 7 8 11
30 30 30 30 30 29 27 25 24 23 22 20 19 17 16 16 15 14 14 15 16 17 17 18 19 19 19 19 19 19 20 19 19 18 18 18 18 19 20 21 22 22 22 22 21 19 17 16 16 15 13 12 10 7 8 9 9 10 10 9 7 5 4 5 6 6 7 7 7 7 7 7 7 7 7 7 6 6 7 8 8 8 7 7 9
31 30 29 29 28 26 24 22 22 22 21 19 18 16 16 15 14 13 14 15 15 16 16 16 16 17 17 17 17 17 17 15 15 16 17 19 20 22 22 22 23 23 23 22 20 18 16 15 16 14 12 11 10 9 9 9 8 7 7 6 6 4 3 4 6 6 6 6 7 6 6 6 6 6 6 6 5 5 6 7 8 9 8 7 7
31 30 28 27 26 24 22 21 22 22 21 19 17 16 15 14 13 13 13 13 14 14 14 14 14 15 15 15 14 14 13 14 16 18 20 21 22 23 23 22 22 22 22 21 19 17 17 16 15 13 11 10 11 10 10 9 8 7 5 4 5 5 4 4 5 6 6 6 6 5 5 5 5 5 5 6 5 3 4 5 7 8 8 5 3
31 29 28 27 25 23 22 22 22 22 20 18 17 15 14 13 12 13 12 12 12 12 11 11 12 12 12 11 11 12 14 16 18 20 21 22 22 22 22 21 21 21 21 20 18 18 18 17 15 12 10 10 11 11 10 8 8 7 6 5 6 6 5 5 5 6 7 6 6 5 4 4 4 5 6 7 6 4 3 4 5 5 5 4 2
30 29 28 27 25 23 22 23 23 22 20 18 17 15 13 12 12 11 10 10 9 9 8 9 8 9 9 10 12 14 16 17 19 20 21 21 22 22 21 20 20 21 22 21 19 19 20 20 16 12 10 10 11 11 10 8 7 7 7 6 6 6 6 7 6 6 7 6 4 4 4 4 5 5 6 6 5 3 2 2 2 2 2 3 2
29 29 28 26 25 24 23 23 23 22 20 18 16 13 12 11 11 9 8 7 6 6 6 6 6 7 9 12 14 14 16 17 18 20 20 21 22 22 20 19 20 21 22 22 22 22 24 23 17 12 10 9 10 11 10 7 6 8 8 8 7 7 7 7 6 6 7 7 6 5 5 5 6 5 5 5 5 4 2 1 2 2 3 3 2
29 28 27 26 25 24 24 24 23 21 19 16 14 12 11 10 8 6 5 4 3 3 3 4 6 9 11 13 13 13 15 16 18 19 20 21 22 23 22 20 20 21 23 23 23 24 25 24 20 13 10 9 9 9 8 7 7 9 9 10 11 10 10 10 10 9 9 8 9 9 8 8 7 6 5 5 5 5 5 4 2 0 1 1 0
29 27 26 26 25 25 25 24 22 20 17 14 12 11 10 8 5 4 2 0 2 3 4 6 9 11 12 12 12 12 14 15 17 19 20 20 22 22 22 21 21 22 23 23 23 22 22 23 21 16 11 9 9 8 8 9 9 9 9 10 12 13 13 13 12 11 10 9 10 10 10 10 9 9 8 7 6 5 5 5 5 4 3 2 2
28 27 26 26 25 25 24 23 20 17 14 12 10 9 6 5 4 3 2 2 3 5 7 9 12 12 11 11 11 12 13 15 17 18 19 19 20 21 21 21 22 22 22 22 22 22 21 20 21 20 16 12 10 9 9 10 11 10 11 11 10 10 11 12 11 10 9 10 10 10 10 10 10 10 10 10 9 8 7 7 7 5 4 3 3
27 27 26 26 25 25 23 21 18 15 12 10 8 5 4 4 3 4 4 4 6 8 10 12 12 12 11 11 11 12 13 14 16 17 18 18 18 20 20 21 22 23 22 22 21 21 21 22 22 21 18 16 14 12 12 12 12 12 12 11 9 9 10 10 10 9 8 8 8 8 9 10 9 10 10 11 12 12 11 10 9 8 6 5 4
26 26 26 26 25 24 21 19 16 12 10 8 6 5 4 4 5 6 6 7 9 11 12 12 12 11 11 11 11 12 13 14 15 16 17 16 17 18 19 20 22 23 24 23 23 22 22 23 25 24 22 21 20 18 17 15 13 12 12 12 12 11 10 10 10 9 8 6 5 5 8 10 11 10 11 11 13 13 12 11 10 9 8 8 7
26 26 26 25 24 22 19 17 13 10 8 6 6 6 6 6 7 7 8 9 11 13 13 11 11 11 11 11 11 12 13 13 14 15 16 15 15 16 18 20 22 23 24 25 26 25 24 24 25 25 25 26 25 24 22 19 16 16 16 16 15 14 13 12 11 9 7 5 4 5 7 9 10 11 11 11 12 12 12 11 9 9 8 7 7
27 27 27 25 23 21 18 15 11 10 9 8 6 7 8 9 9 9 10 11 12 13 12 11 10 11 11 10 11 12 12 13 13 14 16 15 14 14 17 19 20 21 23 26 28 28 27 26 26 26 26 27 27 25 23 21 21 21 21 21 19 17 16 16 14 12 10 9 8 8 7 8 9 10 10 11 11 10 9 8 7 6 6 5 4
28 28 27 25 22 19 16 13 12 11 9 7 6 7 8 8 10 11 11 12 13 12 11 11 10 10 10 10 11 11 12 12 13 14 15 15 13 13 15 18 19 20 22 24 25 26 26 26 25 25 24 24 23 22 21 21 22 24 24 24 22 20 18 19 20 21 19 17 15 13 12 11 11 12 12 12 11 10 8 7 6 5 5 5 4
29 28 26 24 21 18 16 14 13 10 8 7 8 8 8 9 12 13 13 13 12 12 11 10 10 10 10 10 10 10 11 12 14 14 14 14 13 12 13 15 17 18 19 21 21 21 22 21 21 20 21 21 21 20 20 20 20 22 24 25 25 22 20 20 22 24 24 23 21 19 18 18 17 17 16 16 15 14 13 12 11 10 10 9 8
29 28 26 23 20 18 17 15 13 11 10 9 9 9 10 12 14 15 14 13 12 11 11 11 9 9 9 9 8 9 10 11 13 14 14 13 13 12 12 13 15 17 18 19 19 19 19 18 18 19 20 21 21 21 21 20 19 19 22 25 27 26 24 22 21 21 23 23 22 22 21 21 20 20 19 19 19 19 18 17 17 16 16 15 14
29 27 24 22 19 19 18 17 16 16 13 8 9 11 13 14 15 16 16 14 12 11 11 11 10 9 9 8 7 7 7 9 11 13 13 12 12 13 12 12 13 14 15 15 15 14 15 15 16 17 18 19 20 21 22 22 21 20 21 24 27 29 29 28 26 26 26 25 24 24 24 23 22 22 21 21 22 22 22 22 22 21 21 20 21
28 26 23 21 19 19 18 19 20 18 10 8 13 17 15 15 16 17 16 14 13 12 11 11 10 9 9 8 7 6 6 6 8 10 11 12 12 13 13 12 12 12 12 13 12 13 14 14 15 15 15 16 17 18 20 21 21 22 22 24 26 28 28 29 29 29 29 29 28 28 26 25 25 24 24 24 25 25 24 24 24 24 23 23 25
25 23 21 20 20 20 21 22 20 15 12 13 18 19 17 16 17 16 15 13 11 11 11 11 10 10 9 8 7 5 5 5 6 8 9 10 11 12 13 14 13 12 11 10 9 9 9 10 12 13 14 14 14 15 17 18 19 21 21 22 24 25 25 26 27 28 28 28 28 28 27 27 27 26 26 26 26 25 24 24 25 24 24 25 27
23 22 22 23 22 24 27 24 17 14 18 22 22 20 19 18 18 17 16 14 12 11 11 11 11 10 9 8 6 5 5 5 6 7 8 8 9 11 12 14 15 14 11 9 7 7 6 7 10 13 14 14 14 14 15 16 16 17 18 19 20 20 21 22 23 24 24 24 24 25 25 24 24 24 24 24 24 24 23 23 23 23 23 24 26
24 24 25 25 25 27 28 20 15 18 25 26 24 22 21 19 17 17 17 16 14 13 11 11 10 10 8 7 6 5 5 5 6 7 7 6 7 9 11 13 14 15 13 10 8 9 9 9 10 11 12 13 14 14 14 14 14 15 15 15 15 16 17 18 19 19 19 19 19 20 20 20 20 20 20 21 21 20 20 20 20 20 21 22 22
25 26 27 25 24 24 22 17 17 24 27 24 22 22 21 20 19 18 17 16 15 13 12 11 10 9 7 6 6 5 5 6 7 7 7 6 6 8 10 11 12 13 13 11 10 10 10 10 10 10 10 10 11 12 13 13 13 13 13 12 12 13 14 15 15 15 15 15 16 16 16 16 16 16 16 17 17 16 16 16 16 17 17 17 17
24 27 28 22 18 19 20 20 23 27 26 23 22 21 20 21 21 20 19 17 14 13 12 10 9 8 7 6 6 6 6 7 8 7 6 5 5 6 8 9 10 11 11 11 10 10 9 9 9 9 10 10 10 10 10 11 11 12 11 11 12 12 13 13 14 13 13 14 14 14 15 15 14 14 14 14 14 14 14 14 14 14 14 14 14
26 28 26 20 17 19 23 24 26 26 24 23 22 20 18 19 20 20 20 17 15 13 11 9 8 8 7 6 6 6 7 7 8 7 6 5 5 5 6 7 8 10 10 9 9 10 9 8 8 9 9 10 10 10 10 10 10 11 11 11 11 12 12 12 12 12 12 12 13 13 14 14 13 13 13 13 12 12 12 12 12 12 13 13 13
26 24 20 17 19 23 25 25 25 24 23 22 21 20 18 16 16 18 19 18 16 14 11 8 8 7 6 6 5 6 7 7 7 6 5 4 4 4 5 6 7 8 8 8 8 8 8 7 7 7 8 8 8 8 9 9 9 10 10 10 10 11 11 11 11 11 11 11 11 12 13 13 13 13 13 13 12 11 11 11 10 10 11 11 11
23 20 17 18 21 23 23 22 23 23 23 22 21 20 18 17 16 16 15 15 14 12 11 9 8 7 6 5 5 5 6 7 6 5 4 4 3 4 4 5 6 6 7 7 7 7 6 6 6 6 6 6 6 7 7 7 8 8 8 9 9 9 9 10 10 10 10 10 11 11 12 12 13 13 13 13 13 12 11 11 10 9 9 9 9
22 20 19 20 20 19 19 21 22 22 22 21 20 19 18 17 17 16 14 13 11 10 10 10 9 8 7 5 5 5 5 6 6 5 4 4 4 4 4 5 5 6 6 5 5 5 5 5 5 5 5 5 6 5 5 5 6 7 8 8 9 9 9 9 9 9 9 10 11 11 11 11 12 12 13 14 14 14 14 13 12 12 11 9 9
21 20 20 20 18 17 18 21 22 22 22 21 20 20 19 18 17 16 15 13 12 11 10 10 9 8 7 5 5 4 4 5 6 5 5 5 5 5 6 6 6 6 5 5 5 4 4 3 4 4 4 5 5 4 4 3 4 5 6 8 9 10 10 9 8 8 8 9 10 10 10 11 12 12 13 14 14 15 15 15 15 16 14 12 10
20 20 19 18 18 18 20 23 23 23 22 22 21 21 21 19 18 17 15 13 13 12 11 10 9 8 7 5 5 5 5 5 6 6 5 6 6 6 7 7 6 6 6 5 5 4 3 3 3 3 4 4 5 4 3 3 3 3 4 6 8 9 10 9 8 8 7 8 8 8 9 10 10 11 12 13 13 14 15 15 16 18 18 15 13
21 19 18 18 18 20 22 24 26 25 25 24 24 22 21 20 18 17 16 14 14 12 11 10 9 8 7 6 5 6 6 6 6 6 6 7 7 7 6 6 6 6 6 6 5 4 3 3 3 2 3 3 4 3 2 2 2 2 3 4 6 8 9 9 9 9 8 8 8 8 8 9 9 10 11 11 11 12 13 14 15 17 18 17 15
21 20 19 19 19 21 24 26 27 27 26 25 24 22 21 19 18 17 16 15 14 13 12 11 9 7 6 6 5 6 6 6 7 7 7 8 8 8 7 6 6 6 6 6 5 4 3 3 2 2 2 2 3 3 3 2 2 2 2 3 4 6 7 8 9 9 9 8 8 8 8 9 9 10 10 11 10 10 11 12 14 16 18 17 15
21 21 21 21 21 22 25 27 27 27 26 24 23 22 20 18 17 17 16 14 14 13 12 11 9 8 7 6 6 6 6 7 6 6 7 8 8 8 7 6 6 5 5 5 4 4 3 2 1 1 1 2 2 3 3 3 2 2 2 2 3 5 6 7 8 9 9 9 9 9 8 8 9 9 9 10 10 9 9 11 12 14 16 17 16
21 21 23 23 23 23 25 27 27 26 25 23 22 21 19 18 17 16 15 14 13 12 12 12 11 9 8 8 7 7 7 7 7 7 6 7 8 8 7 6 5 5 4 4 3 3 2 1 0 0 1 1 2 2 2 2 2 2 1 2 3 5 6 7 8 9 9 9 9 8 8 7 8 7 8 9 10 9 8 10 12 14 15 16 16
20 21 23 24 24 23 24 27 27 26 25 23 22 20 18 17 15 14 14 13 12 12 12 12 12 11 10 9 9 8 8 8 9 8 7 7 7 7 7 6 5 4 4 3 3 3 2 1 1 1 0 1 1 1 1 1 2 2 1 2 3 4 6 7 8 9 8 8 8 8 8 8 8 7 7 8 9 9 9 10 12 13 15 16 16
19 20 21 23 23 23 25 27 27 26 24 23 21 19 18 16 14 13 12 11 12 12 13 13 12 11 11 11 11 10 9 9 10 9 8 8 7 7 6 5 4 3 3 4 3 2 2 2 2 2 1 1 1 1 1 1 1 1 0 1 1 2 3 5 6 7 7 7 7 8 8 8 8 8 8 8 9 10 10 10 11 13 14 15 16
18 19 20 21 22 25 28 29 27 25 24 22 21 19 18 16 15 14 12 11 12 13 13 14 13 12 12 12 11 10 10 10 10 9 8 8 8 7 7 6 4 3 3 3 3 2 2 2 2 2 1 2 2 2 1 1 1 1 1 1 0 0 1 3 4 5 5 6 7 7 7 7 8 8 8 9 10 10 10 11 11 12 14 15 16
17 18 19 20 22 26 31 31 28 25 24 22 21 19 18 16 15 14 12 12 12 13 14 15 14 14 13 12 12 11 11 11 10 9 8 8 8 7 7 6 5 3 2 3 3 3 2 1 1 2 2 3 3 3 3 2 2 2 2 1 1 0 1 2 3 4 4 5 6 6 6 7 8 8 8 9 9 10 10 11 12 13 14 15 16
17 17 18 20 22 27 31 30 28 26 24 22 21 20 17 16 15 14 13 12 13 13 14 15 15 14 14 13 12 12 12 11 10 9 8 8 7 7 6 6 5 4 2 2 2 2 2 2 2 2 3 4 4 4 4 3 3 2 2 1 1 1 1 1 2 3 4 5 5 5 6 7 7 8 8 9 9 10 11 12 12 13 14 16 16
18 18 18 21 25 29 30 28 27 26 25 23 22 20 17 15 15 15 14 13 13 14 15 15 14 14 14 13 13 14 13 12 11 10 9 8 8 8 7 5 5 4 2 1 1 1 1 1 1 3 4 5 5 5 4 4 3 2 2 1 1 1 1 1 2 3 4 4 4 5 6 7 7 7 8 9 9 10 11 12 13 13 14 15 16
19 18 19 22 26 30 29 27 25 25 24 23 21 19 17 16 16 15 15 14 14 14 15 15 14 14 14 13 13 14 14 13 12 11 10 9 9 8 7 6 5 3 2 1 1 1 1 1 1 3 4 6 6 6 5 5 4 3 2 1 1 1 1 2 2 3 3 4 4 5 6 7 7 8 8 9 10 10 11 11 12 13 13 14 15
19 19 18 20 23 27 28 27 25 24 23 22 20 19 18 18 17 17 16 16 15 15 15 15 15 15 14 13 13 13 13 13 13 12 11 10 9 8 7 6 4 3 1 1 2 3 3 2 2 3 4 5 6 6 6 5 4 3 2 1 1 2 2 3 4 4 5 6 6 7 7 7 8 8 8 8 9 9 10 11 12 13 14 14 15
20 19 18 18 19 23 26 27 26 25 23 22 20 20 20 20 20 19 17 17 16 16 16 16 16 16 15 15 14 13 13 13 12 11 10 10 10 9 8 7 5 4 2 1 2 3 4 4 4 4 5 6 6 7 7 6 5 4 3 2 2 3 4 4 5 6 6 7 7 7 7 7 7 6 6 7 7 8 9 10 12 13 14 15 16
Wind_Direction
238 241 243 247 250 253 258 263 268 271 272 274 277 278 279 280 281 285 288 290 290 291 293 296 302 306 308 307 303 300 297 297 297 299 300 301 300 299 297 297 297 299 301 304 304 301 299 299 300 302 303 303 302 300 300 297 295 295 292 290 291 285 280 276 276 282 284 284 287 289 290 289 288 287 285 280 276 270 264 261 262 263 262 257 249
238 240 243 246 249 253 258 263 267 271 275 277 280 280 279 278 279 284 289 291 292 295 299 304 309 309 305 300 296 295 296 299 301 302 302 300 299 298 298 298 301 305 307 307 306 306 305 303 302 301 300 298 297 295 295 293 291 291 290 290 292 289 284 278 277 280 283 283 285 287 287 285 284 285 283 279 278 277 274 269 264 262 261 260 257
237 239 243 246 251 255 259 263 266 269 274 277 280 281 278 276 278 283 289 292 296 301 304 306 306 302 297 294 293 296 300 303 304 302 301 299 299 300 301 301 302 303 304 304 304 304 304 303 300 297 294 292 292 292 291 291 290 289 289 291 292 291 287 281 276 277 278 280 283 285 284 283 284 285 285 285 282 278 279 278 273 266 259 258 257
236 240 245 249 254 258 261 264 265 267 270 273 276 278 276 274 277 283 288 291 296 300 301 301 298 295 293 293 296 302 305 305 303 301 301 302 303 303 303 304 305 306 307 307 306 305 304 302 299 297 294 291 290 288 286 286 285 284 285 287 286 284 282 280 277 278 278 278 282 285 284 285 287 287 286 288 287 280 277 276 274 271 261 254 250
237 242 247 252 257 260 263 265 266 266 266 268 271 275 274 274 278 284 287 290 293 294 294 294 293 292 293 297 303 307 306 304 303 304 306 307 308 308 310 311 312 312 312 313 313 313 312 310 309 306 303 299 294 291 288 286 284 283 283 283 281 279 278 277 277 278 278 279 281 282 283 285 287 286 283 283 284 282 276 271 268 265 258 250 246
239 244 249 254 259 262 263 265 265 265 264 264 267 271 272 274 279 282 283 284 286 287 289 292 292 294 298 305 309 308 306 307 309 311 314 315 316 318 319 320 320 320 321 322 322 323 322 322 323 321 317 310 301 297 297 293 289 286 284 283 282 281 280 279 278 276 275 279 282 283 286 288 283 280 278 278 280 281 273 264 259 256 250 239 236
238 243 249 253 258 261 262 263 263 263 262 261 263 266 270 272 274 275 276 278 281 286 290 292 294 300 308 312 311 310 311 314 318 321 324 326 327 328 328 328 329 330 330 330 329 330 330 331 331 331 328 319 305 296 295 296 294 289 285 285 285 286 288 288 284 281 281 283 284 284 287 288 285 286 288 287 284 281 275 268 261 256 249 237 228
238 243 248 252 257 260 260 260 259 259 258 257 258 261 264 266 267 268 270 276 282 288 292 295 303 310 314 314 314 316 321 325 329 331 333 335 336 337 338 337 337 336 335 335 335 334 335 334 334 334 333 327 318 309 301 299 300 298 296 297 295 290 290 292 293 291 288 284 281 282 284 287 290 295 302 303 293 280 273 271 273 269 256 246 236
237 242 247 252 256 257 257 255 254 253 253 252 252 255 258 259 262 264 270 279 286 291 297 305 313 316 316 318 321 327 333 336 338 340 342 345 346 346 346 344 342 340 340 341 340 340 339 339 338 337 336 337 338 329 312 303 303 306 308 310 308 301 294 297 297 291 286 286 287 289 292 295 296 297 303 312 303 278 267 265 265 262 248 242 240
237 242 246 251 253 254 252 250 248 247 246 245 246 249 252 255 259 265 275 284 290 298 307 313 317 319 321 327 333 340 344 345 348 350 354 357 357 356 354 352 349 348 347 348 348 350 353 351 349 349 347 351 358 354 338 329 319 312 311 315 320 319 309 309 307 296 294 304 312 311 305 301 304 305 306 309 302 283 269 257 250 250 239 226 226
238 240 244 247 249 249 247 244 243 241 238 238 240 244 248 253 259 269 280 289 298 307 313 317 321 325 331 340 347 351 353 357 4 8 10 9 6 4 2 358 354 353 353 353 355 1 6 4 2 3 3 8 15 10 357 351 341 324 318 326 337 342 333 328 326 321 319 322 325 323 318 316 320 323 318 315 311 296 275 253 246 256 256 232 217
237 238 241 244 245 245 243 240 237 233 231 232 235 240 245 252 263 275 285 296 305 311 316 321 328 336 346 354 359 3 10 19 23 21 18 14 11 7 3 359 359 0 2 4 7 9 8 6 7 10 13 19 20 11 6 7 360 350 344 344 352 355 350 343 340 339 335 327 323 324 324 329 333 333 333 334 333 317 281 262 261 275 276 252 206
236 237 239 241 242 240 238 235 230 226 226 227 231 237 244 254 269 281 291 302 307 312 321 331 341 352 1 8 17 26 32 32 29 24 19 16 13 9 5 5 9 11 12 13 14 12 8 7 11 17 19 22 20 14 15 18 10 4 360 347 343 344 345 346 346 343 337 329 332 342 341 338 340 341 341 340 338 332 301 285 284 286 272 247 214
235 236 237 238 238 236 232 229 224 220 220 223 228 235 245 260 274 284 294 301 307 319 334 346 359 12 22 34 42 42 40 36 31 25 20 18 15 11 11 16 22 22 20 19 20 20 16 13 16 24 24 24 21 17 18 17 11 11 8 356 349 344 342 340 336 344 355 359 5 7 357 348 348 347 347 350 352 355 336 301 294 289 258 244 249
234 234 234 234 232 230 226 221 218 216 216 220 227 236 250 264 274 282 291 298 312 336 355 10 26 43 53 56 54 47 42 38 32 26 24 22 20 19 21 27 31 29 28 29 31 30 24 19 22 29 27 22 18 13 14 16 14 15 15 19 19 9 2 4 9 24 32 31 34 33 22 12 3 355 359 12 22 29 23 339 288 274 271 274 278
233 231 231 230 228 225 221 217 213 212 214 218 227 240 253 261 268 275 281 296 338 10 33 55 65 70 69 65 58 49 42 38 33 30 29 28 27 30 31 33 34 33 33 35 36 35 27 20 20 25 24 19 16 19 26 30 30 27 28 36 37 30 34 48 54 52 44 37 41 45 43 39 31 24 23 25 31 43 47 40 36 208 223 233 39
230 230 229 227 223 219 216 213 210 209 212 220 230 241 248 253 257 255 259 357 67 79 90 92 87 81 75 68 60 49 41 38 35 34 35 34 35 38 39 38 38 37 36 36 36 38 34 24 18 21 26 23 23 33 39 37 41 46 45 45 40 33 38 48 49 46 41 38 43 48 50 50 44 39 42 41 39 48 60 59 64 83 95 85 79
228 228 226 222 218 214 210 209 208 208 212 220 230 236 235 236 232 204 141 105 116 120 109 100 94 86 78 68 59 49 43 41 39 38 39 39 40 43 44 44 44 42 39 37 34 36 38 33 26 26 31 34 38 44 45 45 53 56 48 43 34 20 20 22 18 20 23 24 32 42 49 53 50 46 49 50 47 55 74 77 68 64 67 70 78
226 224 220 215 211 206 202 202 205 208 212 213 213 215 212 208 191 146 128 134 136 123 112 104 97 89 80 70 61 53 48 44 41 40 41 41 43 46 47 47 47 45 42 40 39 38 39 39 36 36 39 46 53 58 62 66 67 55 39 30 16 358 354 351 347 348 354 3 20 38 47 55 59 59 58 57 56 61 69 71 63 56 56 59 63
221 217 211 205 200 197 196 198 200 201 202 197 185 181 185 174 149 134 138 145 135 122 114 109 100 91 84 74 66 60 55 49 43 40 39 39 41 45 45 46 47 46 43 42 44 45 45 45 47 50 54 59 63 67 71 73 67 49 32 24 17 7 357 347 341 341 344 351 12 40 51 58 63 62 59 59 59 59 59 62 63 60 59 60 59
209 203 198 193 190 189 190 193 195 192 182 170 167 172 167 149 137 139 145 141 131 124 120 114 104 96 89 79 72 67 61 54 46 40 37 36 37 40 43 46 48 48 48 48 48 50 50 51 54 59 63 67 69 70 71 68 60 47 36 29 23 17 12 8 7 10 16 25 50 71 73 69 67 66 64 64 63 57 49 50 55 54 55 60 61
195 190 187 185 184 185 186 186 186 173 156 151 161 163 150 140 139 143 143 138 133 130 127 119 108 101 94 85 77 71 65 57 47 41 38 36 36 38 42 47 50 51 53 54 54 55 57 58 61 64 67 70 72 71 69 64 56 49 42 36 34 34 36 38 44 53 62 74 88 95 92 80 72 68 63 59 61 57 45 40 42 41 43 43 44
185 183 182 182 182 183 182 175 164 157 156 166 171 152 138 142 146 143 140 139 140 138 132 123 114 105 98 89 81 73 66 58 49 44 41 39 38 40 43 48 51 54 57 58 58 59 62 64 65 65 66 67 68 67 65 61 56 51 47 44 45 48 52 57 65 71 75 81 87 88 84 80 77 72 65 58 57 55 50 51 53 51 52 49 44
180 179 181 183 182 180 174 164 160 164 167 169 163 151 149 157 152 142 140 146 150 145 136 128 120 111 102 94 85 75 66 58 52 48 45 43 43 43 45 49 52 56 59 60 59 58 58 59 60 60 60 61 61 61 60 58 57 56 54 53 54 55 58 62 69 75 77 78 78 77 76 76 75 72 68 65 62 61 61 63 66 67 66 64 63
180 182 184 186 183 178 172 166 163 160 152 151 160 162 160 160 153 144 145 154 158 151 140 133 127 118 110 102 90 76 65 58 55 53 50 47 46 46 46 50 53 56 59 61 61 59 58 57 58 59 61 62 62 61 60 59 58 59 62 63 62 61 62 64 69 75 77 78 78 78 77 76 74 71 69 67 67 68 68 68 70 71 70 71 74
183 185 185 184 182 177 171 164 158 154 149 158 174 168 159 157 152 145 148 158 164 156 144 138 134 128 121 113 100 84 70 61 57 56 53 49 48 48 47 49 51 54 57 58 59 60 60 59 59 61 64 65 64 63 62 61 60 61 66 70 68 66 66 68 70 73 76 77 78 78 78 76 75 73 73 73 73 73 72 73 75 75 76 79 80
185 183 182 180 177 173 169 166 164 163 166 178 175 165 157 154 148 142 147 158 162 156 148 143 140 136 132 127 117 102 86 74 66 61 56 52 50 50 49 51 52 54 57 57 54 55 56 55 56 58 60 62 63 63 63 62 61 62 66 70 71 69 68 69 70 73 75 76 76 76 76 76 76 76 76 77 76 74 73 74 75 75 76 78 78
187 182 177 171 168 167 170 172 174 177 178 175 170 163 154 148 143 139 144 153 157 153 148 142 140 139 138 137 132 119 103 90 82 74 63 55 52 50 48 49 49 51 56 56 52 51 52 53 55 58 59 60 61 61 62 61 61 62 64 67 69 71 71 71 71 73 74 75 77 77 78 78 78 77 78 78 76 74 73 73 73 73 74 76 77
188 177 167 164 166 172 174 176 183 185 173 166 163 158 150 148 146 144 147 152 153 150 143 137 134 133 134 135 130 119 109 104 99 89 75 62 55 51 50 49 48 48 50 49 47 50 54 56 57 58 59 59 60 60 61 62 62 63 64 65 67 69 70 71 71 71 72 74 75 76 76 76 76 76 77 76 75 74 73 73 73 74 75 76 77
185 173 167 168 174 178 179 183 192 182 170 164 162 157 152 150 151 151 152 151 150 147 142 136 132 130 129 128 122 115 112 110 104 96 87 75 60 52 51 50 49 49 48 46 50 59 63 63 62 58 54 53 54 55 56 57 59 61 62 63 64 64 65 66 68 69 71 72 74 74 74 74 73 72 72 71 70 70 70 70 70 72 73 74 75
186 178 176 176 178 183 189 196 189 175 168 165 165 163 158 154 153 154 154 152 150 149 147 141 137 134 133 131 127 126 122 109 100 98 96 88 70 55 49 48 49 51 50 47 50 59 62 60 58 55 51 48 47 46 46 45 47 51 54 57 59 58 58 60 61 63 63 65 67 69 69 68 67 66 65 63 62 62 63 63 63 64 65 66 68
192 186 183 183 186 196 204 198 180 172 169 168 169 170 167 160 157 157 158 158 157 155 152 148 143 138 135 134 134 133 126 111 100 100 100 94 80 64 53 47 48 51 49 45 47 54 56 51 49 47 45 44 43 41 38 36 37 40 45 49 52 52 52 53 54 54 54 55 57 58 58 57 56 55 54 53 53 53 54 56 57 56 56 56 57
194 189 187 190 196 199 197 187 177 175 175 174 174 176 175 170 165 163 162 163 163 162 158 151 146 139 135 136 136 131 124 112 102 100 100 97 90 77 62 52 48 50 48 45 48 53 51 45 42 40 38 39 41 38 34 33 31 31 34 37 41 43 43 44 45 46 47 48 50 50 49 47 45 43 42 42 43 44 45 46 47 47 47 49 50
191 189 193 198 194 187 184 182 181 181 180 179 180 179 178 177 175 170 168 168 168 167 164 158 154 148 142 143 144 134 124 116 108 104 103 102 99 87 72 60 51 48 47 45 46 48 44 38 36 33 30 31 34 33 32 31 28 26 26 26 28 29 29 30 32 37 40 40 39 39 38 38 37 37 36 36 37 38 39 39 37 35 36 37 37
187 190 198 198 189 182 181 184 184 184 182 182 182 180 178 178 179 178 176 173 169 168 167 164 160 157 154 156 153 138 127 121 116 115 115 113 105 88 76 70 61 52 46 40 39 37 32 27 24 21 21 23 24 26 29 28 24 20 18 18 18 17 14 14 19 26 31 31 30 30 29 29 30 29 27 27 31 34 35 32 28 23 21 20 19
185 190 191 190 187 185 184 184 184 184 183 181 180 179 178 178 177 178 179 177 175 174 172 169 165 165 168 167 158 145 133 125 125 132 137 132 120 103 89 81 73 62 50 40 35 31 24 18 8 359 358 3 7 14 22 24 21 17 13 12 13 13 13 12 12 14 18 22 25 27 26 25 26 25 23 24 29 32 31 31 29 23 16 9 5
185 188 186 185 186 187 185 183 182 182 180 178 176 175 173 173 174 177 179 181 182 181 178 175 173 173 174 169 160 154 144 133 134 143 148 138 125 113 101 90 80 73 65 55 47 38 28 20 4 347 340 338 342 351 360 4 9 12 9 5 5 7 10 13 10 5 7 11 17 21 23 23 24 23 20 21 25 26 26 28 30 29 26 21 17
182 185 184 183 184 184 183 181 180 179 177 175 172 170 168 169 173 178 182 185 185 183 180 179 179 179 180 175 167 163 156 146 143 149 150 141 126 113 105 100 94 92 87 78 69 59 47 37 20 356 343 336 335 334 333 334 343 356 356 355 357 359 3 6 6 3 1 5 10 14 16 18 18 17 15 14 17 20 20 20 23 26 28 30 31
177 180 183 183 182 182 183 181 178 176 174 171 169 167 168 170 174 180 185 186 185 184 183 184 186 188 189 184 175 168 161 153 149 149 148 141 131 122 116 113 109 106 101 94 87 77 63 51 36 19 5 1 359 354 339 320 315 325 343 354 354 354 356 1 3 2 1 3 6 6 5 7 8 6 3 2 7 13 14 13 16 20 24 28 33
175 177 181 183 183 184 184 181 178 174 172 170 169 168 170 174 178 182 185 185 185 186 187 188 193 197 195 187 180 170 163 158 156 152 146 138 132 130 129 126 118 113 109 105 99 89 75 59 45 29 18 16 17 16 12 359 327 308 322 347 347 342 344 351 358 1 1 1 359 355 350 349 350 351 351 355 4 10 10 8 11 16 19 25 31
176 178 181 183 183 183 182 180 177 174 171 170 169 169 171 176 180 183 184 186 188 192 193 193 198 205 204 196 190 181 171 165 163 160 153 143 137 136 137 133 125 116 109 106 105 101 91 71 47 33 29 27 26 22 21 21 8 337 308 305 315 324 332 340 347 352 354 353 351 349 347 347 348 350 354 2 11 15 10 7 9 12 17 22 28
177 180 182 182 182 181 181 179 176 173 171 170 170 170 172 175 178 181 184 188 192 195 196 197 202 209 211 206 204 199 189 180 176 171 163 153 146 143 141 137 127 116 108 103 102 107 111 115 21 16 45 41 34 27 23 24 24 14 333 291 292 306 318 328 335 342 348 351 352 353 359 5 5 5 6 10 17 22 18 10 9 12 16 20 24
179 182 184 184 184 183 182 179 176 173 172 172 172 172 174 175 176 178 181 187 194 199 200 203 208 213 214 212 212 211 203 194 189 183 175 166 159 153 147 140 130 119 111 104 102 108 128 168 212 233 94 79 52 36 35 36 33 23 350 301 292 300 310 319 329 338 345 352 358 2 9 16 19 19 17 17 21 24 21 14 13 14 15 16 19
182 184 186 188 188 185 182 181 178 176 175 176 176 177 179 179 178 179 181 188 198 203 206 209 214 218 218 217 217 214 207 198 191 184 178 174 172 168 161 153 144 132 117 105 103 111 135 168 200 217 186 142 145 122 81 71 75 73 36 307 298 309 317 325 333 340 346 355 4 8 11 17 21 24 25 26 27 26 23 17 15 14 12 12 13
187 188 190 192 191 186 183 182 181 179 179 180 181 182 183 183 185 187 190 196 203 208 211 213 217 220 222 220 218 214 206 197 190 185 180 177 179 181 177 168 163 158 135 111 104 108 126 151 179 190 181 175 175 171 166 168 161 154 149 159 187 337 338 336 339 343 350 359 6 10 13 17 20 23 26 29 29 26 23 20 16 12 10 9 9
192 193 195 196 193 188 184 182 182 183 185 185 185 184 185 188 192 196 199 205 210 212 214 215 218 220 220 217 215 212 206 198 191 187 183 178 179 184 185 180 178 179 159 126 116 116 115 119 136 148 161 175 180 179 179 179 174 167 163 156 145 110 28 4 355 356 359 2 5 13 21 23 21 22 26 28 26 24 22 20 17 13 11 11 12
195 196 197 195 190 185 183 183 185 188 190 189 188 188 189 193 198 201 204 209 213 214 215 217 218 217 215 212 209 204 198 191 186 182 177 169 166 170 176 181 187 191 181 149 132 122 108 110 128 142 157 170 177 179 181 180 176 176 175 159 140 103 62 35 13 7 8 7 10 22 33 32 24 21 24 25 25 26 26 25 23 21 20 18 17
198 197 196 191 186 184 183 185 189 193 194 193 192 193 196 201 205 207 208 211 213 215 217 218 217 213 209 205 200 196 192 186 184 183 178 168 160 156 156 160 170 180 185 186 177 138 103 117 156 160 163 168 173 178 180 181 182 182 175 158 137 105 75 52 33 26 25 27 32 42 48 45 36 30 30 31 32 34 34 33 30 27 24 20 18
202 200 197 192 190 190 190 191 193 195 196 197 197 199 203 209 213 214 215 215 216 218 219 217 212 207 203 198 194 194 195 193 192 192 189 181 171 164 157 150 148 152 163 198 229 238 264 273 219 192 178 172 175 180 183 183 184 183 174 158 132 106 83 71 64 59 59 66 71 69 65 61 55 51 48 44 41 39 35 30 26 22 19 16 14
205 204 203 201 198 198 199 201 202 203 203 203 203 204 209 214 218 219 218 219 221 222 223 220 214 211 207 201 196 199 203 203 202 202 200 196 191 187 181 174 165 156 153 217 243 243 249 256 245 221 199 184 181 185 188 187 186 187 179 158 133 115 102 95 93 94 96 99 95 88 80 74 69 63 56 46 37 31 25 20 16 12 9 7 5
207 206 206 207 206 204 203 204 205 207 208 208 208 209 213 217 219 218 219 222 226 229 230 228 225 222 218 211 207 210 215 213 210 210 210 208 208 208 206 202 200 200 212 258 271 254 245 246 245 236 218 201 193 193 194 193 191 194 193 184 163 140 124 117 114 111 111 109 104 96 88 78 69 60 49 35 23 16 11 7 4 1 359 357 356